Change the Weather History Date:

Friday, March 8, 2013

  Actual Average (KARG) Record (KARG)
Temperature  
Mean Temperature 44 °F -  
Max Temperature 55 °F 52 °F 80 °F (2009)
Min Temperature 32 °F 35 °F 24 °F (2008)
Degree Days  
Heating Degree Days 22    
Moisture  
Dew Point 34 °F    
Average Humidity 70    
Maximum Humidity 93    
Minimum Humidity 41    
Precipitation  
Precipitation 0.00 in - - ()
Sea Level Pressure  
Sea Level Pressure 30.32 in    
Wind  
Wind Speed 7 mph (ENE)    
Max Wind Speed 12 mph    
Max Gust Speed 16 mph    
Visibility 9 miles    
Events      
Averages and records for this station are not official NWS values.
T = Trace of Precipitation, MM = Missing Value Source: NWS Daily Summary

Daily Weather History Graph

Daily Weather History Graph

Search for Another Location

Airport or City:

Trip Planner

Search our weather history database for the weather conditions in past years. The results will help you decide how hot, cold, wet, or windy it might be!

Date:

Astronomy

Mar. 08, 2013 Rise Set
Actual Time 6:23 AM CST 6:03 PM CST
Civil Twilight 5:57 AM CST 6:29 PM CST
Nautical Twilight 5:27 AM CST 6:59 PM CST
Astronomical Twilight 4:57 AM CST 7:29 PM CST
Moon 4:02 AM CST (3/8) 3:03 PM CST (3/8)
Length of Visible Light 12h 32m
Length of Day
11h 40m
Waning Crescent, 11% of the Moon is Illuminated
Mar 8
Waning Crescent
Mar 11
New
Mar 19
First Quarter
Mar 27
Full
Apr 2
Last Quarter

Hourly Weather History & Observations

Time (CST) Temp. Windchill Dew Point Humidity Pressure Visibility Wind Dir Wind Speed Gust Speed Precip Events Conditions
12:15 AM 37.4 °F 31.4 °F 32.0 °F 81% 30.34 in 10.0 mi ENE 8.1 mph - N/A   Clear
12:35 AM 37.4 °F 32.1 °F 32.0 °F 81% 30.34 in 10.0 mi ENE 6.9 mph - N/A   Clear
12:55 AM 35.6 °F 30.7 °F 32.0 °F 87% 30.35 in 10.0 mi East 5.8 mph - N/A   Clear
1:15 AM 35.6 °F 29.2 °F 30.2 °F 81% 30.36 in 10.0 mi East 8.1 mph - N/A   Clear
1:35 AM 35.6 °F 29.9 °F 30.2 °F 81% 30.36 in 10.0 mi East 6.9 mph - N/A   Clear
1:55 AM 35.6 °F 29.9 °F 30.2 °F 81% 30.36 in 10.0 mi East 6.9 mph - N/A   Clear
2:15 AM 35.6 °F 30.7 °F 30.2 °F 81% 30.36 in 10.0 mi East 5.8 mph - N/A   Clear
2:35 AM 35.6 °F 31.7 °F 30.2 °F 81% 30.36 in 10.0 mi East 4.6 mph - N/A   Clear
2:55 AM 35.6 °F 31.7 °F 30.2 °F 81% 30.36 in 10.0 mi NE 4.6 mph - N/A   Clear
3:15 AM 33.8 °F 27.0 °F 30.2 °F 87% 30.36 in 9.0 mi NE 8.1 mph - N/A   Clear
3:35 AM 32.0 °F 24.8 °F 30.2 °F 93% 30.35 in 7.0 mi NE 8.1 mph - N/A   Clear
3:55 AM 32.0 °F 24.8 °F 30.2 °F 93% 30.35 in 7.0 mi NE 8.1 mph - N/A   Clear
4:15 AM 32.0 °F 26.4 °F 30.2 °F 93% 30.36 in 7.0 mi NE 5.8 mph - N/A   Clear
4:35 AM 32.0 °F 24.8 °F 30.2 °F 93% 30.36 in 5.0 mi NE 8.1 mph - N/A   Clear
4:55 AM 32.0 °F 25.6 °F 30.2 °F 93% 30.36 in 5.0 mi NE 6.9 mph - N/A   Clear
5:15 AM 32.0 °F 24.2 °F 30.2 °F 93% 30.37 in 5.0 mi NE 9.2 mph - N/A   Clear
5:35 AM 32.0 °F 24.2 °F 30.2 °F 93% 30.37 in 5.0 mi NE 9.2 mph - N/A   Clear
5:55 AM 32.0 °F 25.6 °F 30.2 °F 93% 30.37 in 5.0 mi ENE 6.9 mph - N/A   Clear
6:15 AM 32.0 °F 24.8 °F 28.4 °F 87% 30.38 in 4.0 mi ENE 8.1 mph - N/A   Clear
6:55 AM 32.0 °F 28.7 °F 30.2 °F 93% 30.41 in 4.0 mi NE 3.5 mph - N/A   Clear
7:15 AM 32.0 °F 27.5 °F 30.2 °F 93% 30.42 in 4.0 mi NE 4.6 mph - N/A   Clear
7:35 AM 33.8 °F 29.6 °F 32.0 °F 93% 30.41 in 4.0 mi ENE 4.6 mph - N/A   Clear
7:55 AM 35.6 °F 29.9 °F 32.0 °F 87% 30.43 in 5.0 mi East 6.9 mph - N/A   Haze
8:15 AM 37.4 °F 30.3 °F 32.0 °F 81% 30.42 in 8.0 mi ESE 10.4 mph - N/A   Clear
8:35 AM 39.2 °F 32.5 °F 32.0 °F 75% 30.42 in 9.0 mi East 10.4 mph - N/A   Clear
8:55 AM 39.2 °F 33.0 °F 32.0 °F 75% 30.44 in 9.0 mi East 9.2 mph - N/A   Clear
9:15 AM 41.0 °F 36.4 °F 32.0 °F 70% 30.42 in 10.0 mi ESE 6.9 mph - N/A   Clear
9:35 AM 41.0 °F 34.7 °F 32.0 °F 70% 30.41 in 10.0 mi East 10.4 mph - N/A   Clear
9:55 AM 44.6 °F 38.8 °F 32.0 °F 61% 30.39 in 10.0 mi East 11.5 mph - N/A   Clear
10:15 AM 44.6 °F 40.2 °F 32.0 °F 61% 30.40 in 10.0 mi East 8.1 mph - N/A   Clear
10:35 AM 46.4 °F 41.9 °F 32.0 °F 57% 30.40 in 10.0 mi East 9.2 mph - N/A   Clear
11:15 AM 48.2 °F - 32.0 °F 54% 30.39 in 10.0 mi ENE 5.8 mph - N/A   Clear
11:35 AM 46.4 °F 42.9 °F 33.8 °F 62% 30.38 in 10.0 mi NE 6.9 mph - N/A   Clear
11:55 AM 48.2 °F - 33.8 °F 58% 30.36 in 10.0 mi NE 9.2 mph 16.1 mph N/A   Clear
12:15 PM 50.0 °F - 32.0 °F 50% 30.36 in 10.0 mi ENE 6.9 mph - N/A   Clear
12:35 PM 50.0 °F - 33.8 °F 54% 30.35 in 10.0 mi ESE 10.4 mph - N/A   Clear
12:55 PM 51.8 °F - 33.8 °F 50% 30.33 in 10.0 mi East 9.2 mph - N/A   Clear
1:15 PM 51.8 °F - 33.8 °F 50% 30.32 in 10.0 mi East 4.6 mph - N/A   Clear
1:35 PM 51.8 °F - 33.8 °F 50% 30.32 in 10.0 mi East 3.5 mph - N/A   Clear
1:55 PM 53.6 °F - 33.8 °F 47% 30.31 in 10.0 mi East 5.8 mph - N/A   Clear
2:15 PM 53.6 °F - 33.8 °F 47% 30.31 in 10.0 mi ESE 4.6 mph - N/A   Clear
2:35 PM 55.4 °F - 33.8 °F 44% 30.31 in 10.0 mi East 4.6 mph - N/A   Clear
2:55 PM 55.4 °F - 32.0 °F 41% 30.30 in 10.0 mi ESE 8.1 mph - N/A   Clear
3:15 PM 55.4 °F - 32.0 °F 41% 30.29 in 10.0 mi East 4.6 mph - N/A   Clear
3:35 PM 55.4 °F - 32.0 °F 41% 30.29 in 10.0 mi ESE 5.8 mph - N/A   Clear
3:55 PM 55.4 °F - 32.0 °F 41% 30.28 in 10.0 mi ESE 5.8 mph - N/A   Clear
4:15 PM 53.6 °F - 32.0 °F 44% 30.27 in 10.0 mi East 6.9 mph - N/A   Clear
4:35 PM 53.6 °F - 32.0 °F 44% 30.26 in 10.0 mi East 6.9 mph - N/A   Clear
4:55 PM 53.6 °F - 35.6 °F 51% 30.26 in 10.0 mi ENE 9.2 mph - N/A   Clear
5:15 PM 51.8 °F - 35.6 °F 54% 30.25 in 10.0 mi ENE 10.4 mph - N/A   Clear
5:35 PM 50.0 °F - 37.4 °F 62% 30.25 in 10.0 mi ENE 10.4 mph - N/A   Clear
5:55 PM 50.0 °F - 37.4 °F 62% 30.24 in 10.0 mi ENE 11.5 mph - N/A   Clear
6:15 PM 50.0 °F - 37.4 °F 62% 30.24 in 10.0 mi ENE 9.2 mph - N/A   Clear
6:35 PM 50.0 °F - 37.4 °F 62% 30.24 in 10.0 mi ENE 6.9 mph - N/A   Clear
6:55 PM 50.0 °F - 37.4 °F 62% 30.25 in 10.0 mi ENE 6.9 mph - N/A   Clear
7:15 PM 48.2 °F - 37.4 °F 66% 30.25 in 10.0 mi ENE 8.1 mph - N/A   Clear
7:35 PM 48.2 °F - 39.2 °F 71% 30.26 in 10.0 mi NE 5.8 mph - N/A   Clear
7:55 PM 48.2 °F - 39.2 °F 71% 30.25 in 10.0 mi ENE 4.6 mph - N/A   Clear
8:15 PM 48.2 °F - 37.4 °F 66% 30.26 in 10.0 mi NNE 5.8 mph - N/A   Clear
8:35 PM 48.2 °F - 37.4 °F 66% 30.25 in 10.0 mi NNE 5.8 mph - N/A   Clear
8:55 PM 46.4 °F 44.3 °F 39.2 °F 76% 30.24 in 10.0 mi NNE 4.6 mph - N/A   Clear
9:15 PM 46.4 °F 43.5 °F 39.2 °F 76% 30.24 in 10.0 mi NNE 5.8 mph - N/A   Clear
9:35 PM 46.4 °F 42.4 °F 39.2 °F 76% 30.23 in 10.0 mi NE 8.1 mph - N/A   Clear
9:55 PM 46.4 °F 42.4 °F 39.2 °F 76% 30.23 in 10.0 mi NE 8.1 mph - N/A   Clear
10:15 PM 46.4 °F 44.3 °F 39.2 °F 76% 30.23 in 10.0 mi ENE 4.6 mph - N/A   Clear
10:35 PM 46.4 °F 42.9 °F 39.2 °F 76% 30.22 in 10.0 mi ENE 6.9 mph - N/A   Clear
10:55 PM 46.4 °F 42.9 °F 37.4 °F 71% 30.21 in 10.0 mi ENE 6.9 mph - N/A   Mostly Cloudy
11:15 PM 46.4 °F 42.9 °F 37.4 °F 71% 30.20 in 10.0 mi East 6.9 mph - N/A   Mostly Cloudy
11:35 PM 46.4 °F 43.5 °F 35.6 °F 66% 30.19 in 10.0 mi East 5.8 mph - N/A   Mostly Cloudy
11:55 PM 48.2 °F - 35.6 °F 62% 30.18 in 10.0 mi East 5.8 mph - N/A   Clear